Location: Rowland
(34.5359°N, 79.2929°W)
Time: 17:49:54
(UTC+00:00)

A-11 Canister half - Pass Details

Date: 05 October 2022
Orbit: 1515 x 1684 km, 47.2° (Epoch: 06 December)

Event Time Altitude Azimuth Distance (km) Brightness Sun altitude
Rises 02:47:12 0° 266° (W) 4,827 12.1 -46.2°
Reaches altitude 10° 02:50:35 10° 273° (W) 3,818 11.5 -46.8°
Enters shadow 02:58:02 41° 319° (NW) 2,139 9.9 -48.0°
